RH
16 20 17 21 25 27 28 28 34 33 32 33 22 18 20 15 13 15 14 14 16 16 14 15 14 15 15 16 16 15 17 15 17 17 27 44 35 34 47 51 57 59 69 79 62 57 64 60 65 74 83 88 89 88 87 92 92 92 93 93 92 91 92 87 74 72 83 88 90 91 91 86 77 70 70 77 84 87 84 83 83 82 86 85 87 92 93 93 92 95 96 92 88 86 82 75 70
24 32 24 26 25 28 31 24 29 29 29 29 18 16 16 12 14 16 14 14 15 15 15 15 15 16 15 15 15 16 16 13 13 12 24 38 34 42 46 42 54 59 71 82 62 57 66 65 65 68 80 88 89 88 87 92 92 91 91 91 91 90 90 83 80 85 90 91 92 92 93 92 85 83 84 86 88 89 84 83 82 85 88 86 91 93 94 94 94 97 95 92 90 88 83 77 70
24 32 27 27 24 27 28 23 32 31 26 24 18 16 13 13 15 14 12 13 14 14 15 14 16 17 16 16 15 16 15 11 11 10 22 34 37 49 43 37 53 61 71 84 66 57 65 67 67 67 75 84 86 87 89 92 91 91 88 88 88 88 88 84 86 91 92 93 92 92 93 91 88 88 91 90 92 92 87 86 84 87 91 92 95 93 95 96 95 97 95 94 96 90 84 82 76
20 29 27 26 27 28 29 28 31 28 25 22 18 16 13 14 14 13 11 12 14 14 15 15 17 16 15 16 14 14 12 11 13 11 21 35 42 49 42 36 52 62 70 85 74 58 64 66 68 69 74 83 85 85 89 90 89 90 87 85 87 88 89 88 89 91 92 91 89 91 92 89 90 91 92 93 93 92 89 89 88 89 93 94 96 96 97 97 96 97 94 96 99 92 86 87 82
26 31 24 24 30 30 29 25 23 23 22 19 17 14 12 12 11 12 11 12 14 15 15 15 17 16 15 15 14 13 11 12 14 10 21 41 43 41 39 35 47 61 68 83 79 64 68 69 66 70 74 83 86 86 88 87 87 89 87 84 85 87 91 91 90 91 90 89 88 88 91 91 92 93 94 95 93 92 88 89 90 91 94 96 97 96 95 95 96 96 93 94 99 94 88 86 79
31 29 20 22 28 25 27 26 23 22 18 16 15 13 11 10 10 12 12 12 15 15 15 15 15 16 15 14 13 12 12 11 15 15 23 37 33 30 33 31 44 61 66 76 81 72 75 74 68 72 76 83 87 87 88 85 86 88 88 87 87 85 88 89 88 89 88 89 89 88 93 93 91 95 96 95 95 92 88 90 93 93 95 96 96 94 93 92 92 94 92 92 99 96 85 78 63
29 30 24 23 24 20 25 27 25 21 16 14 12 12 11 10 12 13 13 13 15 16 16 16 14 16 17 14 12 12 12 9 16 22 22 25 24 28 29 32 43 56 64 71 78 76 78 79 72 73 79 84 88 87 87 84 85 87 85 87 88 84 86 88 86 86 88 89 89 91 95 94 91 96 96 93 93 90 85 87 90 92 96 95 94 92 89 88 88 92 92 91 97 94 80 63 37
26 33 27 25 29 25 27 27 24 18 14 12 10 11 10 11 13 14 14 14 15 16 17 16 15 18 16 12 13 13 14 13 16 19 16 15 18 22 25 39 46 48 63 68 74 78 77 82 77 74 78 85 91 89 87 84 82 86 83 81 84 83 83 85 85 86 89 90 91 93 95 96 94 96 95 88 88 89 83 82 84 88 93 94 94 91 87 85 85 88 90 91 95 88 65 39 13
22 29 26 25 29 28 29 28 22 15 13 12 10 10 10 11 12 14 14 14 14 14 15 15 15 18 15 13 13 15 19 17 13 13 13 13 14 14 22 46 51 45 60 65 71 78 77 82 81 76 77 84 93 93 90 86 82 85 85 82 84 86 84 82 84 87 90 94 94 91 93 96 95 97 95 89 87 87 85 84 83 84 89 93 93 90 85 83 83 85 89 90 88 70 38 14 2
22 24 26 28 27 28 28 24 19 15 13 12 10 10 11 12 12 14 14 14 14 14 14 14 15 16 16 14 13 18 21 16 13 15 13 11 13 13 18 39 52 50 56 64 71 77 79 83 83 80 78 82 91 94 92 88 84 87 88 88 89 89 87 83 83 86 89 94 93 89 93 96 96 97 96 94 90 85 85 85 82 82 88 93 92 87 82 82 83 85 90 85 67 38 12 3 2
30 22 23 29 28 28 24 21 19 15 12 10 10 12 13 13 13 13 13 13 12 13 14 15 16 15 15 13 15 21 19 16 19 23 19 13 13 17 25 33 48 58 57 63 72 77 80 83 86 84 80 81 86 91 93 91 86 87 90 91 93 90 86 84 82 85 89 90 89 91 95 96 97 98 96 96 92 87 87 86 81 81 87 91 90 85 79 82 83 86 91 72 38 11 3 2 2
37 27 24 28 27 25 21 20 19 16 14 11 12 14 12 12 13 13 12 13 11 11 12 15 15 13 14 12 16 21 21 23 26 25 18 14 13 18 37 42 44 57 61 63 71 78 81 81 86 87 83 82 84 89 92 93 91 89 92 93 94 92 86 83 81 82 87 87 87 91 95 96 97 97 96 96 93 88 88 87 81 78 86 87 84 81 77 82 83 88 89 54 15 2 3 2 2
35 30 28 29 25 23 22 20 18 18 17 14 14 15 12 11 12 12 11 11 10 10 13 14 12 12 14 12 14 20 26 29 25 20 15 19 23 18 34 52 48 54 65 67 69 76 81 80 82 85 86 84 84 89 91 93 93 92 93 95 95 94 88 83 83 82 86 89 87 90 94 97 96 94 93 93 91 87 85 84 79 78 82 81 79 78 77 82 83 91 86 40 6 2 3 2 3
33 27 29 30 26 22 22 21 19 20 18 13 14 14 11 10 11 12 11 12 11 11 14 13 11 13 14 13 14 20 27 28 20 15 14 21 30 24 31 55 56 55 69 72 70 74 78 80 78 80 83 83 86 89 91 92 92 92 92 94 93 91 86 84 85 85 89 91 89 91 94 97 95 93 91 90 89 86 84 82 80 77 80 80 78 79 78 82 84 91 78 30 4 3 2 3 3
31 28 27 29 28 24 23 22 21 21 18 14 13 12 11 10 11 12 12 13 12 11 14 12 12 14 12 12 14 19 23 21 16 13 15 17 24 31 37 54 59 56 69 75 74 74 76 81 80 77 73 73 82 90 92 93 93 92 90 91 91 88 85 85 86 87 93 93 92 94 96 97 95 94 91 89 88 87 85 82 81 73 76 84 80 81 81 82 88 89 65 19 3 3 2 4 3
27 30 30 30 31 27 23 21 20 21 19 15 13 12 12 11 11 13 13 12 13 12 13 13 12 13 12 11 11 16 20 17 16 17 21 22 23 34 40 47 55 57 63 73 77 75 75 81 83 79 71 64 74 90 94 95 96 92 89 89 89 86 85 85 86 90 95 93 94 98 98 96 94 94 89 87 87 85 84 80 82 72 70 86 85 82 85 85 90 89 57 12 2 4 2 5 4
25 29 33 34 33 27 21 19 19 18 16 13 14 13 13 13 12 13 14 13 14 14 13 13 12 12 12 12 10 13 19 20 22 26 32 37 34 38 44 44 52 59 60 64 71 75 76 78 81 81 78 69 72 89 96 96 95 92 89 89 89 87 86 87 89 93 95 95 97 99 98 95 93 91 85 85 84 84 83 78 84 72 60 82 90 84 89 88 89 94 60 10 1 4 2 5 4
27 31 33 33 30 23 17 16 15 14 13 12 12 12 12 13 13 13 15 14 15 15 14 13 11 12 11 12 11 11 18 22 24 30 36 43 44 45 50 50 50 54 56 58 61 70 74 73 77 81 83 79 77 86 94 94 93 90 88 89 90 90 90 90 94 95 94 98 99 97 96 94 92 89 83 82 83 82 84 80 84 76 53 70 92 87 90 90 90 97 62 8 1 5 2 6 5
29 31 32 31 26 20 16 14 13 14 14 13 11 12 13 14 13 13 15 16 14 15 14 12 11 11 10 10 11 11 17 22 24 29 31 34 41 42 44 49 51 49 52 54 52 59 69 71 74 77 81 83 81 84 89 92 93 90 87 88 88 89 90 90 94 96 95 99 99 96 92 89 89 86 81 80 82 81 84 82 83 82 56 62 91 87 88 93 89 98 65 8 1 6 2 6 6
28 29 33 28 21 17 14 13 13 13 13 14 14 13 14 14 14 13 16 17 16 17 15 13 12 10 9 9 9 10 13 19 22 26 27 25 28 30 31 37 47 49 47 46 44 50 60 65 69 72 77 81 82 83 85 89 90 89 87 89 89 86 87 89 93 95 97 98 97 95 88 86 86 83 81 79 81 80 83 83 82 84 60 61 92 85 88 94 87 102 72 11 1 5 3 6 6
24 26 30 23 18 17 13 11 13 14 14 17 17 17 17 14 13 14 17 20 19 17 14 12 11 10 9 9 9 9 9 12 17 22 25 24 22 22 21 23 30 38 40 44 47 48 49 53 60 67 74 78 81 81 83 84 85 85 85 88 91 88 88 91 95 97 98 98 95 93 87 85 84 81 81 81 83 82 83 84 83 85 59 61 93 86 88 94 91 99 59 7 3 5 3 8 7
23 22 23 20 18 18 13 12 15 18 17 18 19 18 17 15 15 15 17 20 19 15 13 12 12 12 11 11 10 10 10 10 13 17 20 21 20 19 19 18 18 23 33 44 49 48 45 46 52 61 70 77 79 79 81 82 81 82 84 87 91 91 92 94 97 99 99 98 95 91 87 85 82 80 80 81 84 84 84 84 85 82 56 63 95 89 84 91 93 80 32 4 6 3 5 9 10
25 22 18 18 17 16 13 12 18 20 18 19 20 18 16 17 17 15 16 17 16 14 13 13 12 13 12 12 12 11 12 13 13 14 15 15 16 16 17 18 17 17 25 37 44 48 49 47 48 55 65 73 77 78 79 81 80 80 82 86 88 89 92 94 94 97 97 97 95 91 88 85 82 80 79 81 84 84 84 83 85 78 54 66 96 92 80 81 85 61 20 8 7 3 6 8 10
23 24 19 17 15 14 13 13 17 19 19 19 19 19 19 20 19 16 16 15 13 13 12 11 11 11 12 12 12 12 12 13 14 12 12 12 12 13 14 16 17 16 19 27 37 45 51 50 48 53 60 66 73 77 79 80 81 79 80 82 84 84 87 89 88 89 91 92 91 87 86 84 82 80 80 81 82 84 83 81 82 72 58 71 93 94 84 79 78 54 20 10 8 6 7 6 9
19 22 20 18 16 15 15 16 18 18 17 17 19 21 20 19 19 17 17 15 13 12 11 11 11 10 11 11 11 12 13 14 14 12 11 12 12 12 13 15 16 17 17 21 30 40 48 49 49 53 58 63 68 74 78 79 79 79 78 78 79 79 81 82 82 83 84 87 87 83 82 82 81 80 80 80 82 84 82 80 77 67 67 80 89 89 85 82 76 55 27 11 6 5 5 6 7
17 18 17 16 17 16 16 16 16 16 15 16 20 21 19 16 16 17 15 13 12 11 11 11 11 11 10 10 10 10 11 13 14 12 11 11 12 13 13 15 16 17 17 18 24 34 42 46 49 52 54 59 65 71 76 77 78 78 77 77 78 78 78 79 79 80 81 83 83 82 80 80 80 80 80 79 82 85 79 76 74 67 71 82 84 78 77 79 73 56 34 12 4 5 5 7 7
18 18 18 16 18 16 16 16 14 14 13 14 18 19 17 15 16 17 14 11 11 11 11 10 10 11 10 9 9 9 10 11 11 10 11 11 12 14 14 15 17 17 17 18 21 27 35 41 47 51 53 56 62 67 73 76 76 77 77 77 77 78 78 78 79 80 80 80 81 81 80 80 80 79 79 80 84 84 77 73 73 70 71 78 82 74 72 79 73 54 32 11 4 5 5 6 7
18 18 18 17 17 16 15 15 14 14 14 14 16 17 16 15 16 17 14 11 11 11 10 10 10 11 11 10 10 11 11 10 8 9 13 13 11 12 13 15 17 18 19 19 20 23 29 36 43 49 53 56 60 65 70 75 75 75 76 76 76 76 77 78 80 81 79 78 78 79 79 79 80 79 80 83 85 83 77 73 72 71 72 78 82 77 73 76 70 53 30 13 7 7 7 8 8
17 17 20 19 16 17 15 14 14 14 14 15 15 19 19 16 16 15 13 12 11 11 11 10 11 11 11 11 11 11 11 9 9 10 10 11 10 10 12 13 15 18 18 19 21 23 25 30 38 45 51 56 60 63 67 72 73 73 75 75 76 75 77 79 79 80 80 78 76 77 78 77 77 79 82 84 84 82 77 73 71 70 74 79 82 78 72 70 62 47 29 17 12 11 11 12 12
18 18 20 21 21 20 15 14 15 13 16 15 15 24 23 16 15 13 12 12 10 12 12 11 11 11 11 11 12 12 12 12 11 11 11 12 13 14 15 16 16 17 16 17 20 24 26 28 34 42 49 54 58 60 64 70 72 73 73 75 76 76 78 79 79 79 79 78 76 76 76 76 76 79 83 84 82 81 76 73 70 69 73 76 77 74 69 63 52 37 26 19 16 15 15 16 15
19 20 21 24 28 26 16 14 15 14 18 15 15 26 24 16 15 13 12 12 12 13 13 12 12 11 11 11 13 13 12 12 14 17 21 21 21 21 22 22 21 21 19 17 18 21 26 28 32 40 46 52 57 60 62 67 70 71 73 75 75 76 77 79 79 78 78 78 77 76 75 75 77 80 83 83 81 79 76 72 68 66 68 69 70 67 63 56 44 31 23 18 18 19 18 17 15
18 23 29 28 30 28 18 15 16 16 18 14 17 26 24 16 15 13 12 12 13 14 13 13 13 12 11 11 12 12 12 16 22 26 28 29 28 27 28 28 27 25 23 21 20 21 25 29 32 37 43 48 54 59 62 65 69 70 72 73 73 75 77 79 79 78 79 80 79 78 77 76 79 83 84 82 80 78 74 71 67 64 62 63 63 61 58 52 40 29 23 18 17 20 20 18 16
23 26 33 33 30 28 22 17 16 16 18 16 18 24 22 17 15 13 13 13 13 13 13 13 13 12 12 13 11 12 18 25 29 30 32 33 33 33 33 33 31 29 29 27 25 25 27 29 32 37 43 46 51 59 63 65 67 70 72 73 75 76 78 81 82 82 81 81 82 81 80 79 81 84 83 81 80 77 74 71 66 63 60 58 58 56 53 49 40 30 26 20 15 16 19 17 16
32 30 33 31 27 27 26 22 18 17 18 17 18 20 20 18 15 14 13 13 13 13 13 12 12 13 12 13 14 18 26 30 32 33 35 37 37 37 37 36 35 34 33 32 31 30 30 31 34 40 45 48 52 58 65 68 68 71 74 75 76 78 80 82 82 82 82 82 82 82 82 81 82 83 81 80 80 77 75 71 67 63 59 57 55 53 50 47 41 33 26 21 16 15 16 16 15
36 36 34 32 28 27 28 24 20 18 18 19 21 21 21 18 15 15 13 12 14 13 13 13 13 13 13 16 21 28 31 32 34 36 37 38 38 39 39 39 40 40 39 37 36 34 33 33 36 41 44 47 52 58 66 72 72 74 77 78 78 79 81 83 83 81 82 83 82 82 82 81 82 82 80 80 80 78 76 72 68 64 59 57 54 51 49 46 41 34 26 20 17 16 15 15 15
30 31 32 33 32 29 26 23 20 19 20 21 22 23 21 19 17 15 14 13 14 14 14 14 14 15 18 24 29 32 34 36 36 36 37 39 40 40 41 42 44 45 44 43 42 40 39 37 37 41 43 44 50 57 65 73 76 77 79 79 79 80 81 83 83 82 82 82 82 82 82 82 83 83 81 81 80 79 77 74 69 64 60 56 52 49 47 44 39 32 25 19 16 18 18 16 17
25 28 31 32 33 31 25 23 21 18 23 23 22 24 21 20 18 16 15 15 15 16 15 15 17 22 27 31 34 34 37 40 38 36 37 39 41 41 43 45 46 46 46 46 46 45 44 42 40 42 43 43 47 54 64 72 76 77 79 79 80 81 81 82 82 83 82 80 79 80 82 82 83 84 83 82 82 80 78 76 71 66 60 55 52 49 44 41 36 30 25 19 16 19 22 21 20
26 30 33 34 35 33 25 23 22 19 24 25 21 24 23 20 20 17 16 17 16 15 17 20 24 28 31 33 36 38 39 41 39 37 38 39 42 43 44 46 47 49 49 47 48 48 46 45 44 44 44 44 45 48 57 66 70 71 72 73 76 76 77 79 80 80 80 77 76 78 81 82 83 83 83 83 83 81 79 77 74 69 62 57 53 49 44 40 35 30 26 22 19 18 21 23 22
31 34 37 41 37 32 29 23 20 20 24 26 24 26 26 21 20 18 18 17 16 19 25 29 31 34 36 37 39 41 43 43 42 40 40 39 42 45 46 48 49 50 49 46 46 48 48 47 47 48 47 47 48 47 51 60 66 68 69 70 72 73 74 77 79 79 79 78 79 79 80 82 82 82 83 83 83 83 82 79 76 72 66 60 55 50 45 40 35 30 26 23 22 21 22 23 24
35 37 39 43 37 36 36 26 21 22 23 26 26 27 26 22 20 19 18 16 17 25 31 33 36 40 43 44 43 43 44 46 45 43 42 40 41 45 48 50 51 51 50 47 46 47 49 49 50 51 50 50 51 50 51 56 61 63 65 65 65 66 68 69 70 71 72 74 77 78 78 81 81 82 81 82 83 83 83 82 78 73 67 62 58 53 47 41 36 31 26 24 23 24 25 26 26
38 40 41 40 35 34 34 29 26 26 26 26 27 35 35 27 24 21 17 15 19 27 30 32 38 41 43 46 47 47 47 47 46 45 44 42 41 43 46 49 51 52 51 49 47 47 48 49 51 52 52 53 53 52 51 52 54 56 58 58 58 59 59 60 61 63 64 67 69 70 71 74 76 79 80 81 81 82 83 83 81 75 68 63 60 56 50 44 38 31 27 25 23 23 25 28 30
41 41 40 35 31 33 34 34 35 38 41 32 29 48 50 32 27 25 19 17 22 27 29 32 37 40 44 46 47 49 49 47 46 45 45 43 41 42 45 47 50 51 51 50 48 47 47 48 50 51 52 54 54 52 50 51 52 54 55 55 56 55 54 56 57 59 61 63 66 67 68 69 69 72 75 78 79 80 81 82 81 77 70 63 59 57 53 46 40 33 28 26 25 21 21 29 33
43 45 44 34 30 37 38 37 41 48 49 34 28 48 54 38 30 27 22 21 25 29 30 33 37 41 45 47 49 49 48 48 48 46 45 44 42 42 44 46 48 50 48 48 48 47 47 48 49 50 52 53 54 53 51 52 53 53 54 54 54 52 52 52 52 51 53 56 58 61 63 64 63 64 68 72 75 76 77 79 79 78 72 63 58 57 54 48 41 36 30 27 26 23 20 26 31
47 48 46 36 32 38 39 40 47 49 45 39 33 40 51 51 37 26 23 23 28 31 32 36 39 42 45 47 50 49 48 48 48 48 47 45 44 43 44 45 46 48 47 45 46 46 47 48 49 50 50 51 53 54 53 53 54 55 55 55 55 54 54 52 51 50 50 50 52 53 56 58 59 59 60 64 68 71 73 74 76 76 74 67 60 56 54 51 44 37 33 30 27 26 22 21 25
50 48 41 36 35 38 39 45 51 46 48 54 45 40 55 59 39 27 24 24 31 34 33 38 40 43 45 46 49 49 49 48 47 48 48 45 45 43 43 44 44 46 46 44 44 44 45 47 49 49 49 50 51 52 53 54 56 56 56 56 56 56 55 54 53 52 51 51 51 52 53 55 56 56 56 58 61 65 68 69 71 73 73 71 65 59 54 52 46 39 35 33 30 28 24 21 21
47 46 40 39 41 43 43 49 50 46 54 60 50 44 56 59 42 30 27 24 32 36 35 40 43 46 47 47 50 50 49 50 48 47 47 45 43 42 42 42 43 44 44 44 42 42 43 44 46 48 49 50 51 50 51 52 53 55 56 56 56 56 56 56 55 54 54 53 52 52 53 53 53 54 54 55 56 58 61 63 66 67 68 69 68 64 59 54 50 43 37 33 32 30 26 24 22
44 42 43 46 49 50 50 50 46 53 64 59 48 41 47 61 52 33 28 26 30 35 37 43 46 47 49 49 51 50 50 51 50 48 47 44 42 42 42 42 42 41 41 42 41 41 42 43 44 46 47 49 50 51 51 52 52 53 54 54 55 55 55 55 54 54 53 53 52 52 52 52 51 52 52 53 54 54 56 57 59 61 62 64 66 65 63 59 54 48 41 35 33 32 29 26 24
42 40 43 49 56 52 52 53 51 64 70 54 46 40 41 60 54 28 22 24 26 32 38 44 48 50 52 53 53 52 52 52 52 53 51 48 46 44 43 43 42 41 41 42 42 42 41 42 43 43 45 46 47 48 49 51 52 53 54 54 54 55 55 54 53 53 53 53 53 52 52 52 51 51 51 52 53 53 54 54 55 56 57 59 60 61 62 61 58 53 46 39 35 34 31 28 26
43 43 43 55 62 56 58 65 65 70 65 48 45 45 45 51 40 23 22 26 29 32 35 42 48 52 55 56 56 54 53 53 54 56 56 54 52 48 44 43 43 43 44 43 41 40 40 40 40 42 44 44 44 45 46 47 49 51 53 53 54 55 55 55 54 54 55 55 55 54 54 54 53 52 52 52 53 53 55 55 55 55 54 55 56 57 58 59 59 56 51 44 39 37 35 32 28
47 48 52 61 62 59 63 64 63 63 55 43 39 44 52 47 31 27 32 39 44 41 41 47 50 53 54 54 56 56 54 55 56 56 57 56 51 46 43 44 44 45 45 44 42 40 38 38 38 40 41 42 42 43 44 44 44 46 49 51 52 54 54 55 55 55 56 56 57 57 56 56 55 54 53 53 53 54 55 56 57 57 56 55 55 56 57 57 57 56 54 49 44 41 39 36 33
45 43 52 59 55 58 63 59 62 64 57 48 41 46 54 44 35 39 42 47 52 49 50 53 52 53 54 54 54 53 53 56 57 56 55 52 46 44 45 45 46 46 44 44 43 40 39 38 38 38 39 39 39 40 42 43 42 42 43 44 46 49 51 52 53 54 55 55 56 56 57 57 57 56 56 55 54 55 56 58 59 59 58 57 57 57 56 56 57 56 55 53 48 44 41 39 37
48 43 53 60 52 51 59 61 60 63 65 58 49 52 46 31 33 43 44 48 51 51 52 52 51 52 53 55 53 52 53 56 57 56 51 47 43 44 46 46 46 46 44 43 42 40 40 39 38 38 38 38 36 35 36 36 36 35 35 36 38 40 44 46 48 50 52 53 54 55 55 56 56 57 57 56 56 56 57 59 62 62 62 61 59 58 58 57 57 57 56 55 52 48 44 42 40
51 52 58 56 46 43 56 64 54 55 70 61 46 51 42 27 34 42 44 49 48 49 50 49 51 53 54 57 55 54 56 55 54 52 48 45 44 44 45 44 45 46 45 43 40 38 38 38 39 38 38 38 38 36 31 24 21 21 22 25 27 29 34 37 38 41 43 44 47 50 52 54 55 56 56 56 57 57 57 59 60 61 62 63 62 60 60 59 59 59 58 57 55 52 49 45 43
51 57 55 46 46 48 51 61 61 62 73 58 41 48 45 37 43 44 45 50 48 48 49 49 52 53 55 57 55 54 53 50 49 47 46 44 42 44 45 44 46 46 45 42 39 36 35 35 35 35 35 37 40 41 38 29 20 15 13 12 14 16 20 22 22 25 26 28 32 35 39 45 50 52 54 55 56 56 57 58 59 60 60 61 62 61 60 60 60 61 60 59 57 55 53 51 47
50 54 49 42 55 64 55 60 72 74 75 63 48 47 44 40 42 42 44 48 49 50 49 48 50 51 54 54 53 52 49 48 47 46 48 46 42 44 45 45 47 47 45 43 40 37 34 32 32 31 32 32 34 36 38 37 33 27 21 15 12 10 10 10 10 11 12 13 16 18 20 26 31 36 41 47 52 55 56 57 58 60 60 61 62 62 61 60 61 61 61 61 60 59 57 55 53
47 48 48 42 51 63 57 57 65 68 73 71 62 58 51 42 40 40 42 44 46 48 48 49 49 49 52 54 55 53 49 49 47 45 47 45 41 43 45 46 48 47 46 44 42 40 36 32 32 32 32 32 31 31 31 33 35 36 31 24 20 18 15 14 13 11 10 9 9 10 9 11 13 16 20 26 34 43 50 54 56 57 58 59 61 63 63 62 61 62 62 62 61 61 60 59 57
52 54 54 49 49 56 58 58 57 62 73 74 73 73 59 44 44 43 42 43 44 47 50 52 51 50 51 53 55 53 50 49 48 46 46 42 40 43 45 47 48 48 47 45 43 43 39 35 33 33 34 35 35 34 33 31 31 34 35 30 27 26 25 25 23 19 16 14 13 11 10 9 8 9 9 11 15 21 30 40 47 52 55 56 57 58 60 62 62 62 62 62 62 62 62 61 59
53 57 58 55 54 57 67 70 57 56 67 67 73 81 64 49 49 46 43 46 48 50 52 53 51 50 51 53 53 52 50 50 47 46 45 41 40 43 45 46 46 45 44 42 41 41 40 38 34 32 32 35 36 36 36 35 32 32 34 32 31 31 30 30 30 28 26 24 22 19 16 14 11 10 10 9 9 9 12 18 25 33 43 50 54 55 56 58 61 62 61 61 62 62 62 62 61
Wind_Speed
4 5 5 5 7 9 8 3 1 1 2 4 3 2 2 1 0 2 6 5 3 3 3 2 3 2 3 3 3 5 4 3 3 2 0 3 7 10 11 11 12 15 17 15 19 27 26 25 23 22 21 20 18 17 17 15 15 14 14 13 13 12 11 10 11 11 10 9 8 8 7 7 6 6 6 6 6 5 5 5 5 6 6 5 4 5 5 5 5 4 3 2 2 2 1 2 3
3 5 6 5 7 5 3 0 1 3 2 2 2 4 1 0 2 4 6 5 3 3 2 2 3 2 3 4 4 5 4 4 1 2 3 8 10 8 8 10 14 16 17 15 20 27 27 26 24 23 22 21 19 18 17 16 15 15 14 14 13 12 11 11 11 11 10 10 9 9 8 7 7 6 6 6 6 5 4 4 5 5 5 5 5 5 5 5 4 4 2 1 2 1 0 1 1
1 3 6 6 5 4 2 1 1 3 3 1 3 3 1 2 5 5 5 5 4 3 2 2 2 1 3 4 3 2 3 1 4 4 4 9 7 5 6 10 14 15 16 15 19 27 28 27 25 24 23 22 20 19 18 17 15 15 14 14 13 13 12 12 12 11 11 10 9 9 9 8 8 7 7 7 6 5 4 3 5 6 5 5 5 5 5 5 4 3 1 0 2 1 1 2 3
2 2 5 6 3 3 2 1 2 3 4 2 3 3 3 3 5 5 4 4 4 2 2 2 0 1 2 2 3 2 2 2 6 4 2 6 4 4 5 10 14 14 15 13 17 26 28 28 27 25 23 23 22 21 20 18 17 15 15 14 14 13 13 12 12 12 11 11 11 10 10 9 9 9 9 8 7 6 5 5 5 6 6 6 5 5 5 4 3 2 1 1 2 1 3 4 6
4 3 5 5 2 1 1 1 2 2 3 2 2 2 4 4 5 5 4 2 4 3 2 2 1 2 1 2 2 2 1 3 4 4 3 6 5 4 3 9 14 13 16 13 15 24 27 28 28 26 25 23 22 22 21 20 18 16 15 15 15 15 14 13 13 13 12 12 11 11 10 10 10 10 10 9 8 7 6 6 6 6 6 6 5 5 4 3 3 2 1 1 1 3 5 7 8
6 4 5 3 1 1 1 2 3 3 1 3 2 3 5 5 6 5 4 2 6 5 1 1 2 2 2 2 3 2 2 2 1 3 4 5 5 4 1 7 13 12 15 14 14 21 24 26 27 27 26 25 24 23 22 21 20 18 17 16 16 16 15 14 14 14 13 13 12 11 11 11 11 10 10 9 8 8 8 7 8 8 7 5 5 4 3 2 2 1 1 1 1 3 7 8 8
7 4 3 2 1 1 1 3 4 3 1 3 2 3 5 5 6 5 5 4 3 4 1 1 2 3 3 1 2 4 2 3 2 3 3 3 4 4 2 6 13 11 13 15 14 17 22 23 25 28 27 26 25 24 23 22 21 20 19 18 17 17 16 15 15 15 13 13 12 12 12 12 12 12 11 10 10 10 9 9 8 9 8 5 4 4 3 2 2 1 1 1 2 4 8 8 7
6 2 0 0 1 1 2 4 5 2 1 3 3 1 2 4 4 3 4 3 1 2 1 2 2 2 2 0 2 3 5 6 5 4 2 2 2 3 2 6 12 11 12 15 14 16 19 21 23 26 27 26 25 24 24 23 23 21 20 20 18 17 17 16 16 15 14 13 13 13 13 13 13 13 13 12 12 11 9 10 8 9 9 6 4 5 4 3 2 2 1 2 3 6 8 7 4
5 2 1 1 1 1 2 5 4 2 1 4 3 1 2 3 3 2 4 4 1 1 1 4 4 2 3 4 3 3 6 6 6 4 2 1 2 2 4 8 11 12 13 15 16 17 17 20 22 24 27 27 25 24 24 24 23 22 21 20 19 18 17 17 16 16 15 15 15 16 15 14 14 14 14 13 12 11 10 10 8 10 10 7 6 5 3 3 3 2 2 3 5 8 8 4 1
3 2 1 1 1 2 4 3 0 1 1 3 2 3 6 4 4 2 3 4 0 0 1 5 2 3 4 5 4 2 7 7 7 4 3 2 1 2 5 10 11 12 14 15 16 17 17 19 21 23 26 27 26 25 24 24 23 22 21 21 20 19 18 17 17 17 17 17 16 16 15 15 14 14 13 12 12 11 11 11 9 10 10 9 7 6 4 4 4 3 4 6 7 7 4 0 2
1 2 1 1 2 3 3 3 4 3 3 2 3 6 6 4 3 2 2 2 0 2 3 5 2 3 4 5 3 3 9 8 7 5 4 3 2 3 5 9 12 13 14 17 16 16 17 18 20 22 25 27 28 26 25 24 24 23 22 21 21 20 20 19 19 19 18 18 17 17 16 16 15 14 13 11 11 10 9 9 8 8 9 9 8 7 7 5 4 4 6 8 6 3 1 2 3
1 2 1 1 3 3 3 5 4 5 6 4 3 6 2 2 1 4 3 4 4 6 2 4 1 1 3 4 2 5 10 7 7 6 4 3 3 4 6 8 12 14 14 17 18 15 16 18 21 23 24 27 28 28 26 25 25 24 23 22 21 21 21 20 20 20 20 20 19 18 17 16 16 15 13 12 12 10 10 9 8 7 8 9 8 8 8 7 5 5 7 8 4 3 3 3 3
2 3 2 2 3 4 4 4 4 4 5 1 4 4 0 1 1 3 5 5 6 6 3 4 3 3 3 5 2 6 6 5 7 6 4 4 3 4 8 7 10 14 14 17 19 17 16 17 21 23 25 27 29 29 28 26 26 25 24 23 22 21 21 21 21 22 22 21 20 19 17 17 17 16 14 13 13 12 12 12 10 8 8 9 8 8 8 7 6 6 8 8 4 4 3 3 3
2 3 2 3 3 5 3 4 4 3 3 3 4 3 2 1 1 3 3 6 7 2 1 1 3 3 2 5 1 3 4 7 8 6 5 6 5 5 7 9 10 12 14 16 19 19 17 17 19 23 25 26 29 30 29 28 27 26 25 25 23 22 22 21 22 22 22 21 21 19 18 18 17 16 15 14 14 14 13 13 11 10 10 10 9 9 8 8 7 8 9 7 5 5 4 4 4
2 3 1 2 3 5 3 3 3 3 2 4 2 2 1 3 2 1 3 5 5 1 0 3 3 1 3 4 2 2 7 10 8 6 5 6 6 6 7 10 11 12 15 16 17 19 19 17 17 20 24 26 30 32 31 30 28 28 26 26 24 23 23 22 22 22 22 21 20 20 20 19 17 17 16 16 16 16 14 13 12 12 12 11 11 10 10 9 9 10 9 7 7 6 5 4 4
1 3 1 2 3 5 2 2 1 1 1 4 2 1 1 4 2 2 1 1 5 5 3 3 4 4 5 6 8 3 6 9 7 5 4 5 6 7 9 11 12 13 15 17 17 18 19 19 18 19 21 24 30 32 32 31 30 28 27 26 26 25 24 23 22 22 22 21 21 22 21 19 19 19 18 17 18 17 16 15 14 14 14 13 12 12 11 11 11 11 9 8 8 7 6 5 4
1 1 1 2 4 5 2 1 1 1 3 2 4 2 1 4 1 1 3 2 5 8 7 6 6 7 7 10 14 9 7 9 7 6 6 7 7 8 10 11 12 13 16 19 19 20 20 21 20 20 21 22 27 31 31 30 31 29 28 27 26 26 25 24 23 23 23 22 22 22 21 21 21 20 19 18 19 18 17 17 15 15 15 14 13 13 12 12 12 11 9 9 9 7 6 5 4
1 0 2 3 4 4 3 4 3 3 5 4 2 3 4 4 2 1 2 3 5 9 9 9 9 9 13 18 21 15 9 10 9 9 9 10 9 10 12 13 15 15 17 19 20 21 22 23 23 22 22 22 25 29 29 28 29 29 29 28 28 27 26 25 24 24 25 24 24 23 22 21 21 21 20 20 19 19 18 18 16 16 15 15 15 15 14 14 13 12 10 11 9 7 6 5 4
2 1 3 4 4 5 6 7 5 5 5 7 7 6 6 6 6 2 2 6 5 8 10 8 10 10 13 17 21 19 13 14 14 13 12 12 12 12 13 15 17 18 18 20 21 23 23 24 25 25 24 24 25 27 28 27 27 27 27 29 29 28 28 27 27 27 27 27 26 24 23 22 22 21 20 21 20 20 19 18 17 16 15 15 16 16 15 15 14 12 11 12 9 8 7 6 4
3 3 3 5 5 6 6 7 6 5 6 7 7 6 7 7 6 3 4 8 6 8 9 8 10 9 9 8 11 15 14 16 16 16 14 13 14 14 14 15 17 19 20 21 21 22 24 25 26 28 27 26 26 27 28 27 27 26 26 28 30 30 29 29 29 29 29 29 28 27 25 23 21 20 19 20 21 21 20 19 18 17 16 16 18 18 17 16 14 13 13 13 10 9 9 7 6
2 3 4 5 5 7 7 9 7 6 5 4 5 6 8 8 5 4 5 7 6 8 9 9 11 10 11 11 10 11 10 10 12 15 14 14 16 16 17 16 16 18 19 20 21 22 24 26 27 29 29 28 28 29 29 28 27 26 26 28 29 30 31 31 31 31 31 30 29 28 26 24 22 20 19 19 21 22 21 20 19 18 17 18 19 20 19 17 17 16 16 14 11 11 9 8 6
1 4 6 6 6 7 8 9 5 5 5 4 5 6 7 6 6 6 5 7 7 6 8 11 13 12 11 11 11 11 10 9 8 10 13 14 16 17 17 17 16 16 16 19 22 22 23 25 27 28 29 29 29 30 30 29 29 27 26 29 30 29 30 32 33 32 31 30 30 28 27 25 23 23 22 21 22 22 22 21 21 20 20 20 21 22 21 20 20 20 17 14 13 12 11 10 8
3 5 6 6 7 8 8 8 3 3 4 6 6 6 6 7 8 8 8 11 10 9 10 13 15 13 13 11 10 10 10 9 8 10 12 14 16 17 17 16 16 16 17 19 21 22 22 24 26 28 30 31 31 31 30 30 30 29 27 27 29 30 30 31 32 33 32 31 30 28 28 27 25 25 25 24 23 23 22 21 21 21 21 22 23 23 22 21 21 21 17 15 14 13 13 13 11
4 5 6 8 9 10 9 7 4 3 6 7 6 6 7 9 9 7 10 13 13 11 11 13 15 14 14 11 10 10 11 10 10 13 16 16 17 17 17 16 16 15 16 19 20 21 22 23 24 27 29 31 32 31 31 31 31 31 29 27 27 29 29 30 30 31 32 32 31 30 29 27 26 27 26 25 25 24 23 22 21 21 23 23 23 24 22 20 20 20 18 17 16 16 16 15 12
5 6 6 7 7 8 7 6 6 6 8 7 5 7 10 10 8 9 13 16 15 13 11 13 14 13 12 11 11 10 9 10 12 15 17 17 18 18 16 15 16 16 17 19 20 21 22 22 24 27 29 30 32 32 33 32 31 31 31 30 28 28 29 29 29 29 29 30 31 31 30 28 27 28 27 27 26 25 24 22 21 21 23 23 23 23 22 21 20 20 19 18 19 19 18 15 13
3 5 5 5 6 8 8 9 9 9 7 5 5 10 11 9 7 9 13 16 15 12 10 12 12 11 11 10 10 9 9 9 11 14 15 15 16 17 16 16 17 19 20 21 20 21 22 22 24 26 28 30 31 32 33 32 32 32 32 32 30 29 30 30 28 27 28 29 30 31 31 30 29 29 28 27 27 26 25 23 22 22 23 24 24 23 23 23 22 22 21 20 21 21 18 16 14
3 5 7 8 9 9 9 12 13 11 9 8 8 11 12 7 5 7 11 13 12 10 9 9 9 10 9 9 9 8 8 9 12 14 13 10 11 14 15 16 18 20 21 20 19 19 20 21 23 25 27 28 30 31 32 32 31 32 32 33 32 31 31 31 29 27 28 29 30 31 32 31 30 30 29 27 27 27 27 25 23 22 23 24 24 23 25 25 24 23 22 21 22 20 18 16 15
5 6 8 10 11 11 12 13 13 9 7 8 7 9 13 8 5 10 14 13 11 9 10 9 8 8 8 10 10 7 7 9 12 10 6 6 9 12 13 14 17 20 19 19 19 18 18 20 22 23 25 26 28 29 30 31 31 30 31 32 33 32 32 32 30 28 28 29 30 31 32 33 32 31 29 28 28 28 28 27 25 24 25 26 25 24 25 25 24 22 21 21 20 19 17 16 15
4 4 6 11 11 11 13 13 12 9 5 6 4 4 9 8 6 11 13 10 8 8 9 9 8 7 8 8 8 7 7 8 10 9 9 9 8 8 8 8 10 12 13 14 15 15 15 17 19 20 22 24 26 27 28 29 29 29 28 29 31 32 31 32 32 31 30 29 30 30 32 34 33 31 30 29 28 28 28 28 27 26 26 27 25 25 25 24 23 22 21 20 19 19 18 16 15
3 4 5 9 8 7 11 9 7 6 3 8 7 1 6 9 8 8 7 5 6 8 9 11 9 8 8 8 7 7 7 8 8 8 9 10 14 16 17 17 16 13 11 10 9 10 11 13 15 17 19 22 24 25 25 26 27 27 26 26 27 28 29 30 32 32 30 30 30 30 31 34 35 33 30 29 29 29 29 29 29 29 28 27 26 26 26 24 23 23 22 21 20 20 20 18 17
5 6 5 5 4 5 8 4 5 4 1 6 6 2 5 9 11 8 7 9 10 11 12 13 10 8 8 7 6 6 6 5 10 17 22 26 27 27 27 26 25 23 20 16 13 7 7 8 11 13 15 18 20 22 23 22 23 24 24 24 24 25 27 28 29 30 30 29 30 30 31 33 35 34 31 30 30 30 30 30 30 30 29 28 27 27 27 26 25 25 25 24 23 22 21 20 19
5 5 4 4 3 5 7 2 7 5 2 3 6 2 6 6 10 10 8 9 11 12 14 15 11 9 8 7 6 6 5 11 22 27 28 28 28 27 27 26 25 24 22 19 17 11 4 5 8 10 11 13 16 19 20 19 17 19 20 20 22 22 23 25 25 26 27 27 28 30 31 32 33 33 32 31 31 31 31 31 31 30 30 29 28 28 28 27 27 27 26 26 25 23 22 20 19
4 4 4 5 4 5 5 2 4 7 3 3 6 3 5 4 8 14 11 11 12 12 13 14 12 9 7 7 6 3 7 13 18 22 26 27 27 26 25 25 24 22 22 21 19 17 11 6 5 6 8 8 11 14 16 17 15 14 15 16 18 18 19 21 21 22 23 23 25 27 28 31 32 32 32 31 31 31 31 31 30 30 30 30 29 29 29 28 28 27 26 26 26 24 22 21 20
3 4 3 5 4 4 4 4 1 6 6 4 7 5 6 6 8 12 13 14 13 11 12 13 11 8 7 6 3 8 11 12 12 17 24 25 26 25 24 24 24 23 22 21 21 19 17 13 9 3 3 4 6 8 10 13 13 11 11 12 13 14 15 17 18 18 19 20 20 22 24 26 29 31 32 31 30 30 30 29 29 29 30 30 29 29 29 28 28 27 26 26 25 24 23 22 21
4 5 4 5 5 5 6 6 4 1 2 3 5 6 6 7 7 9 14 17 14 12 11 10 9 8 7 5 8 11 11 11 11 16 22 25 25 24 23 24 24 24 23 22 22 20 18 16 13 8 4 4 2 4 4 7 10 8 8 9 10 11 12 14 15 16 16 17 17 17 18 20 24 29 31 31 29 29 29 28 27 27 29 29 29 29 28 27 27 27 27 26 25 24 23 23 22
8 7 5 5 5 5 7 9 7 2 2 4 5 6 6 7 9 10 14 15 12 12 11 9 8 5 5 8 10 10 11 10 11 18 23 24 23 23 23 24 23 24 25 24 24 23 21 18 16 14 9 6 4 1 1 3 6 7 6 6 8 9 10 12 13 13 13 14 15 14 14 16 19 24 29 30 29 28 28 28 27 26 27 28 29 29 28 28 28 28 27 27 26 23 22 23 23
8 6 5 5 6 7 7 10 6 4 2 4 4 6 7 8 11 13 15 13 10 11 11 7 3 6 9 10 9 10 10 9 12 19 22 23 24 23 22 23 24 25 26 26 26 26 25 22 21 20 15 10 7 5 3 1 2 3 4 5 6 7 9 10 11 13 12 12 13 14 14 14 16 20 25 29 30 28 28 28 27 27 27 27 29 29 28 28 28 28 27 27 27 25 22 23 25
7 4 5 5 5 7 8 9 6 3 1 4 4 6 8 9 13 15 13 9 9 8 4 5 10 11 8 9 10 9 8 8 12 16 19 22 23 22 22 23 25 25 26 27 26 26 26 25 24 23 19 16 13 10 9 6 3 1 1 1 2 3 3 5 7 10 12 11 10 12 13 14 15 18 22 27 29 29 29 29 28 28 28 28 28 28 28 27 27 27 27 26 27 27 25 26 29
6 4 4 4 6 6 7 6 2 3 1 3 5 7 7 10 15 16 12 9 6 3 9 11 11 10 9 10 9 9 9 9 10 11 15 20 21 21 22 23 24 24 25 27 27 27 28 27 25 23 21 21 17 13 13 13 8 5 5 5 4 3 3 4 4 5 9 11 10 10 11 12 13 16 19 22 26 28 29 30 29 29 29 29 28 29 28 28 28 28 29 28 27 26 24 26 31
4 4 3 5 5 4 4 2 2 3 2 5 7 6 5 9 14 14 13 9 1 11 15 13 10 11 11 10 9 9 9 9 9 9 11 16 19 21 22 22 23 24 26 28 28 27 28 27 26 23 21 22 20 14 14 14 10 8 7 6 5 3 2 1 2 2 5 8 10 11 12 12 13 15 17 19 22 25 28 30 29 29 29 29 29 30 30 30 30 31 31 32 30 26 23 24 31
5 6 6 6 6 6 4 2 5 5 5 4 4 5 4 7 9 7 8 4 7 11 12 12 10 10 10 10 10 9 8 8 8 9 9 12 17 20 21 22 23 25 27 28 28 27 27 26 25 24 23 22 21 17 15 14 11 10 10 9 8 6 4 3 3 3 3 4 7 9 11 12 13 14 16 17 19 22 25 27 28 28 28 28 28 30 31 31 31 33 33 34 34 31 28 26 29
5 5 5 6 5 4 3 4 5 4 4 2 1 3 3 5 6 6 7 4 6 8 10 11 8 8 9 9 9 7 7 7 7 8 9 11 16 19 21 22 24 26 27 27 28 28 27 25 24 24 24 23 22 18 16 15 13 12 13 12 11 10 8 8 7 5 3 3 3 5 7 9 10 12 14 15 17 19 22 25 26 27 27 27 27 29 30 31 31 33 34 35 36 36 33 27 28
4 3 2 2 1 2 1 2 1 1 4 3 2 3 4 4 6 7 10 6 6 8 9 9 7 8 8 8 7 5 6 6 6 8 9 12 16 17 19 21 23 25 26 27 28 29 29 27 25 24 24 24 23 20 17 17 16 15 14 12 12 12 12 12 11 9 6 5 5 5 7 9 9 9 11 13 15 17 19 21 24 26 26 25 25 27 30 30 31 33 34 36 36 36 35 30 29
3 2 3 3 2 1 1 2 3 3 4 5 5 5 5 5 6 10 13 7 8 9 8 8 7 8 8 8 7 5 6 5 5 7 8 11 14 16 17 20 22 24 27 29 30 30 29 28 26 26 26 25 23 21 19 18 17 16 14 13 13 12 11 10 9 9 7 6 6 7 7 9 10 10 10 11 13 15 16 18 20 23 25 25 24 25 28 29 30 31 32 35 36 36 36 33 32
2 1 1 2 1 1 2 3 5 4 3 5 5 6 3 5 5 8 10 6 8 8 7 8 8 8 8 8 7 5 5 5 5 7 8 10 15 18 18 18 21 24 27 29 29 29 28 28 28 28 29 28 25 22 20 19 17 16 15 15 14 13 11 10 8 8 9 8 8 7 8 9 10 10 10 10 11 13 14 16 17 20 23 25 25 25 26 28 29 30 31 33 35 36 37 35 34
2 1 0 0 2 3 4 4 3 2 3 5 6 7 3 5 6 5 4 4 5 6 6 7 8 8 8 7 6 5 4 4 5 7 10 13 16 17 17 17 21 24 26 27 28 28 28 28 29 30 30 29 27 25 23 21 19 18 16 16 15 14 13 12 10 10 10 9 9 9 9 9 10 10 11 10 10 11 12 14 15 17 19 22 24 25 25 26 28 29 30 31 34 36 36 36 35
2 1 1 3 4 4 3 3 2 1 4 7 8 10 8 3 6 3 2 3 7 8 6 7 8 8 8 7 5 5 4 4 5 7 10 13 15 15 17 19 22 24 25 27 27 26 26 26 28 30 29 28 28 27 26 25 23 21 19 17 16 15 14 13 13 14 13 12 11 11 10 10 10 10 11 11 11 11 11 12 13 15 17 19 22 24 25 26 27 29 29 29 32 34 36 36 35
2 0 1 3 3 2 2 1 2 1 4 6 6 8 11 5 4 3 1 4 10 10 9 10 10 8 8 7 5 5 5 4 5 6 7 9 11 14 17 19 21 23 24 25 25 24 24 25 27 29 29 28 27 27 27 27 26 24 21 19 17 15 14 14 15 15 14 13 13 12 11 10 11 11 11 11 12 12 12 12 12 13 14 16 19 21 23 25 26 27 28 29 29 32 35 36 35
3 2 2 1 2 0 1 1 1 3 5 4 5 2 5 5 5 6 4 4 5 6 9 11 10 9 8 7 6 5 4 4 5 6 6 6 7 11 13 15 17 19 20 21 22 23 24 26 27 28 28 26 26 26 26 27 27 26 24 22 21 18 17 16 15 15 14 14 13 13 12 12 12 12 12 13 13 13 13 13 13 13 13 14 16 18 20 23 25 26 27 28 29 30 32 35 36
5 4 4 3 1 1 3 3 2 3 4 2 4 5 1 3 4 5 1 7 7 8 10 9 9 10 8 7 6 5 4 4 5 6 5 5 7 9 10 11 13 14 15 18 21 23 25 27 27 27 26 25 25 24 24 25 25 25 24 24 23 22 21 20 19 17 16 15 14 13 13 13 13 13 13 14 14 14 14 14 14 14 14 14 14 16 18 20 22 24 26 27 29 30 30 33 36
7 5 4 4 3 3 4 4 3 3 3 3 1 1 1 2 1 2 6 9 8 9 10 9 9 8 7 7 6 4 4 4 6 6 5 6 7 8 7 8 9 11 14 18 21 23 24 25 25 24 24 23 23 23 23 23 23 23 24 24 24 24 23 22 22 21 19 18 16 15 14 13 13 13 13 13 13 13 14 15 15 15 15 16 15 16 17 18 20 22 24 26 28 29 30 31 34
3 1 3 2 3 3 3 4 4 4 5 4 3 3 4 3 3 6 7 8 9 9 9 9 8 7 7 6 5 4 4 5 6 6 5 5 6 6 6 8 9 13 17 20 21 21 22 22 22 22 21 21 21 22 22 21 21 22 23 23 23 23 23 24 23 22 21 20 19 18 17 15 14 14 14 14 13 13 14 14 15 16 17 17 17 16 16 17 19 21 23 25 27 28 29 30 32
1 2 1 3 2 2 2 5 4 4 5 5 5 5 5 4 2 6 7 8 8 7 7 8 7 7 6 5 4 4 4 5 5 5 4 4 5 6 7 10 12 15 17 18 19 20 20 19 19 18 18 18 19 20 21 22 22 22 23 23 23 23 23 23 23 22 22 21 21 21 20 18 17 16 15 15 15 14 13 14 16 18 19 18 18 17 17 17 18 20 22 23 25 27 29 30 30
3 1 3 1 2 1 1 3 3 4 6 5 6 7 5 4 3 3 6 7 7 6 7 7 6 7 6 5 5 4 5 5 4 4 4 4 4 5 8 10 12 13 15 16 17 17 17 17 17 17 17 17 16 16 17 19 21 23 24 24 24 23 23 22 22 22 22 22 23 23 22 22 20 19 19 17 16 15 14 14 16 18 19 19 19 18 17 18 18 20 22 23 24 25 28 30 31
4 2 1 1 1 1 2 2 2 5 7 4 6 8 6 5 3 1 4 7 8 6 6 6 6 6 5 5 5 5 5 4 3 3 1 2 3 5 7 9 10 11 12 13 13 14 15 15 15 16 17 17 16 16 16 16 18 20 22 23 23 23 23 23 23 23 23 24 24 24 24 23 22 22 21 21 19 18 16 15 15 18 19 19 19 18 18 18 18 20 21 23 24 25 27 29 30
3 2 2 1 2 3 3 2 2 5 7 5 5 6 5 4 2 2 2 7 9 7 6 6 6 6 5 5 5 4 4 4 3 3 3 3 3 4 5 6 6 7 8 9 10 11 12 13 14 15 15 16 16 16 16 16 16 17 18 20 20 21 21 21 21 22 22 23 23 23 24 24 23 23 23 22 22 22 20 18 17 17 18 19 20 20 19 18 18 20 21 23 24 25 27 29 30
1 1 2 2 2 2 2 2 3 4 5 4 5 6 4 2 3 3 5 7 8 8 7 6 5 6 5 5 5 5 5 5 4 5 4 4 4 4 3 2 3 5 6 6 7 7 8 10 12 12 13 13 14 14 14 14 14 14 14 16 17 18 19 18 18 19 20 21 21 21 22 22 22 23 23 23 23 23 22 21 20 19 19 19 20 20 20 20 20 20 21 22 24 25 26 28 29
1 2 4 4 3 2 3 5 5 4 4 4 5 7 4 1 2 3 5 5 5 7 8 6 5 5 5 5 5 5 5 5 5 5 4 4 5 4 4 3 4 4 4 4 4 5 5 6 9 10 11 12 12 12 12 12 13 12 12 13 14 14 15 16 16 18 19 19 20 20 20 21 22 22 22 22 22 22 21 21 21 20 20 19 19 19 20 20 21 22 22 23 23 24 26 28 28
Wind_Direction
4 345 334 324 307 305 297 269 283 254 202 245 270 62 77 26 226 351 31 47 65 69 50 340 318 322 290 303 295 302 289 268 289 333 286 178 139 147 180 172 154 158 168 179 182 181 182 184 182 179 173 172 176 175 176 176 180 183 183 185 183 182 183 182 176 166 161 161 163 164 165 169 169 172 169 162 163 169 180 175 169 169 158 153 157 147 134 131 129 123 126 158 120 92 66 73 80
19 331 314 304 290 290 307 290 307 277 234 250 7 50 127 233 67 44 36 30 37 49 33 326 315 326 288 274 275 293 277 230 193 24 122 138 124 149 189 169 159 157 165 181 181 180 183 185 184 182 176 175 177 176 176 177 181 186 185 185 184 183 184 180 171 168 171 170 174 175 173 179 178 177 173 170 172 175 189 184 171 169 164 159 157 147 133 127 120 118 129 213 153 112 22 29 38
25 307 298 285 265 243 281 289 261 302 313 350 48 35 13 15 48 46 35 49 54 43 358 273 243 294 266 244 265 290 275 273 86 35 118 134 116 153 185 159 157 158 166 182 181 181 185 185 186 184 180 179 179 178 178 181 183 186 187 186 182 180 180 177 174 175 179 179 181 182 180 186 183 177 174 171 169 167 168 163 161 161 164 158 148 137 122 115 110 115 128 173 126 108 314 325 320
39 17 306 287 258 221 259 247 253 307 310 339 65 68 67 37 42 44 32 63 101 89 328 302 160 183 242 264 315 321 274 33 72 43 99 117 96 156 175 155 154 161 168 181 183 183 186 187 188 186 183 182 181 182 182 184 186 187 188 186 182 178 180 179 180 182 184 186 186 187 186 191 186 179 175 167 163 159 148 143 151 158 164 156 142 128 115 110 106 111 122 122 107 359 324 326 321
19 1 291 293 305 238 299 295 280 273 284 348 61 70 56 35 31 39 11 35 110 87 338 335 340 201 213 296 304 309 340 50 65 53 87 110 118 147 181 161 153 166 171 175 184 184 188 189 190 188 186 184 184 186 186 187 188 188 188 188 187 184 183 184 186 186 189 189 190 192 190 195 189 179 171 163 163 159 147 144 149 156 160 155 145 132 122 112 110 118 148 162 102 323 320 322 320
332 296 252 272 272 122 344 281 272 259 303 30 15 10 27 24 27 16 339 13 103 98 24 330 327 306 266 256 189 237 6 57 52 61 94 124 135 149 196 159 153 171 174 172 186 186 190 193 192 191 188 187 187 189 189 189 189 189 189 190 192 191 187 189 191 189 192 192 193 195 193 198 192 175 165 159 162 165 159 158 162 159 157 160 156 145 144 132 126 148 181 215 234 299 311 314 316
302 289 221 237 260 106 274 268 275 281 37 52 20 360 1 8 29 5 341 10 96 109 52 328 9 325 274 245 199 233 161 114 134 104 123 138 128 155 176 149 156 175 178 172 186 189 193 198 195 193 190 188 189 191 192 191 190 190 191 192 194 194 190 191 193 190 193 195 196 198 197 198 190 171 165 169 176 180 178 183 185 173 167 169 170 173 183 187 187 191 207 228 225 279 302 309 314
285 283 143 231 259 178 224 263 265 259 112 84 70 16 354 7 38 10 337 330 264 113 171 180 82 300 259 129 239 188 123 116 127 132 151 166 163 191 164 149 161 177 182 174 183 194 199 203 198 196 193 191 191 193 195 194 192 192 194 196 197 197 194 193 194 193 195 197 200 203 200 195 186 175 180 192 195 192 195 203 207 196 187 181 188 191 189 198 197 190 195 197 227 280 301 307 317
246 225 19 330 279 231 232 247 242 239 49 73 61 3 48 27 39 43 325 310 299 6 169 135 115 246 326 342 270 128 113 127 127 140 164 186 217 222 168 159 166 178 184 176 185 199 202 204 202 199 197 194 193 195 197 196 194 194 196 197 198 198 197 197 196 196 196 199 206 211 205 194 185 181 190 199 198 197 204 214 224 225 210 192 201 209 198 194 190 190 205 221 252 290 303 305 20
219 186 335 308 292 271 255 252 251 51 74 84 92 49 51 40 23 37 296 306 64 299 148 115 137 233 308 317 283 135 146 147 119 136 166 148 186 193 177 169 170 182 184 178 190 202 201 201 202 201 201 198 196 197 199 198 198 197 198 199 198 199 201 201 199 199 198 201 209 215 207 194 188 188 194 196 199 210 219 226 232 232 220 203 207 222 223 204 195 200 223 247 273 296 298 243 113
243 182 127 347 286 266 287 352 2 345 341 352 91 74 56 63 7 283 254 290 267 272 199 134 152 253 286 280 283 125 139 137 122 148 161 141 167 164 180 180 177 183 185 181 189 205 203 200 201 202 203 201 200 200 200 200 202 202 203 203 202 203 204 204 202 200 200 203 210 214 205 195 191 191 196 197 205 217 220 226 228 219 216 213 209 218 222 210 205 209 235 257 280 285 215 140 112
286 225 102 310 291 290 342 360 328 332 326 307 82 80 46 82 337 294 349 332 320 312 283 123 143 312 310 283 262 129 119 113 135 168 176 155 179 169 179 196 190 185 188 188 188 201 208 202 201 203 204 204 203 202 203 203 204 205 206 207 207 207 208 208 205 202 202 205 209 212 205 197 194 194 198 202 208 210 205 215 224 212 207 210 206 212 215 209 213 216 239 256 265 212 172 136 113
276 315 4 279 300 310 336 333 304 322 312 339 88 101 234 26 336 330 359 329 310 312 354 59 3 5 306 284 247 137 123 137 165 186 180 162 195 198 181 196 208 189 191 198 192 197 208 208 204 205 205 206 205 204 205 206 207 208 209 210 211 211 211 211 208 205 205 206 208 210 203 196 198 202 206 207 213 218 217 226 235 217 199 202 202 205 208 208 214 215 235 249 236 202 171 143 124
307 339 360 292 321 308 298 286 294 317 303 73 93 142 129 314 39 9 340 301 301 316 99 12 14 31 288 273 270 135 177 189 185 187 172 174 201 226 188 189 215 193 194 206 200 198 205 213 210 208 208 207 208 205 206 208 209 210 212 214 215 216 215 213 212 209 208 208 208 206 198 196 204 209 211 211 217 225 227 230 232 215 194 198 201 201 205 207 208 209 228 239 221 201 174 156 144
327 337 357 290 303 293 251 247 300 334 314 84 109 135 109 254 160 149 275 273 291 24 69 246 158 139 288 285 277 171 189 191 186 188 183 197 205 222 201 193 213 199 198 209 207 203 202 211 214 213 213 211 209 206 207 209 211 212 214 217 217 218 218 215 215 214 212 210 207 202 197 198 204 209 213 215 221 226 228 228 227 218 199 196 202 199 203 204 203 205 219 227 210 198 180 168 158
343 330 349 272 283 289 252 235 286 276 313 93 146 120 346 293 129 170 280 304 299 319 305 252 175 211 269 274 271 248 191 199 199 210 206 217 212 216 217 210 217 210 207 209 210 209 202 204 211 216 215 214 210 207 208 210 212 213 215 218 217 218 219 217 216 216 214 210 204 202 201 202 204 210 216 221 226 229 231 232 230 224 204 194 200 199 200 199 199 201 211 219 205 195 184 176 168
359 343 275 261 265 268 259 252 249 269 335 70 178 154 7 318 75 134 10 3 283 289 277 262 236 226 239 248 261 265 224 219 212 212 205 212 215 213 225 224 220 219 218 215 212 210 206 203 206 213 215 213 209 206 209 213 215 215 216 217 216 217 218 217 216 216 214 208 205 205 206 208 210 216 222 226 228 231 234 235 233 227 209 194 197 198 196 195 196 194 203 215 202 194 186 180 173
220 169 217 245 246 261 338 327 328 359 337 337 298 338 346 321 319 81 27 289 254 272 272 267 261 243 239 242 251 252 226 223 215 207 206 205 205 202 214 220 219 221 223 223 218 212 209 207 205 207 211 212 208 206 209 213 217 218 218 218 216 216 217 216 214 213 212 208 207 209 211 214 218 222 226 228 229 232 235 236 232 229 216 198 195 196 193 193 194 187 199 215 201 193 192 185 174
226 234 239 248 252 280 325 315 329 354 324 322 319 337 343 329 332 354 294 284 280 284 281 280 279 264 251 242 241 237 220 221 217 212 214 208 204 203 210 213 214 219 221 225 225 218 213 211 207 205 208 211 208 206 207 210 215 217 217 218 217 216 216 216 214 211 210 210 211 213 216 219 223 225 227 229 231 232 232 233 232 231 221 201 194 196 192 192 192 184 198 212 198 194 202 191 175
216 218 248 252 267 291 307 306 321 329 320 323 319 348 339 313 313 303 285 288 281 274 276 280 280 280 292 291 261 246 228 223 216 211 219 223 221 221 222 216 211 216 222 228 230 222 216 215 212 209 208 208 207 206 206 207 212 216 216 216 217 217 216 216 214 211 210 211 214 217 219 220 222 225 227 230 230 229 228 228 230 231 221 202 196 196 192 191 191 185 196 206 197 198 207 194 180
201 191 234 264 297 310 306 308 322 335 350 353 326 332 311 297 297 286 288 288 268 258 265 275 283 295 311 321 314 293 269 250 224 208 215 229 233 236 238 234 228 227 227 225 224 223 221 219 215 212 209 208 207 206 206 205 207 214 216 214 215 216 216 215 214 213 212 213 216 219 219 217 217 219 223 225 224 224 224 223 224 225 216 202 198 198 194 193 193 193 200 201 196 201 206 199 191
249 234 243 265 289 293 288 301 336 19 356 327 304 300 296 303 299 282 271 266 258 256 270 279 282 288 294 297 302 299 289 280 252 219 219 230 238 242 244 245 243 240 228 216 217 223 225 221 217 214 210 208 208 206 206 206 205 209 213 213 212 214 216 216 215 215 214 214 216 219 219 216 214 215 218 219 217 219 221 220 220 219 211 201 201 202 199 197 200 204 206 201 200 204 204 202 196
209 252 254 267 273 276 286 299 343 45 325 294 284 289 302 301 287 280 267 261 259 259 266 273 275 274 275 277 283 282 276 272 261 246 240 241 246 247 246 245 244 240 228 218 219 223 223 222 220 216 211 209 209 208 207 207 206 207 210 211 211 212 214 216 217 217 217 216 217 219 219 215 212 213 215 215 214 216 221 222 220 214 208 202 202 205 205 204 207 213 213 205 204 207 207 205 198
207 253 269 276 276 277 283 296 313 320 288 277 280 288 285 276 278 285 272 267 266 263 263 269 274 275 273 268 263 265 269 269 262 257 254 251 254 255 251 245 243 244 234 225 224 222 222 224 221 217 214 211 209 208 207 208 208 208 208 208 210 211 211 213 216 218 218 218 218 218 219 214 210 211 212 214 214 214 220 222 219 211 205 204 204 206 208 210 212 217 216 205 204 209 211 208 202
243 259 266 268 274 285 292 299 294 280 271 269 278 276 265 260 269 276 272 272 270 264 260 262 269 273 270 265 262 259 260 265 267 263 258 254 256 257 255 247 241 241 238 232 228 223 223 226 223 218 216 213 210 209 208 208 209 209 209 208 210 210 209 211 214 215 216 216 216 215 216 212 208 209 211 215 214 213 216 217 215 207 202 204 207 205 205 212 213 215 217 206 206 213 213 210 207
256 282 299 302 297 300 301 294 280 269 265 254 259 267 262 260 270 266 261 264 267 264 253 247 255 263 260 263 267 267 263 261 264 267 264 257 253 250 247 245 240 239 242 239 234 228 225 226 224 219 218 216 212 210 209 208 209 210 211 210 209 210 210 211 213 213 213 213 213 213 213 210 208 208 210 214 215 211 210 210 209 205 200 203 211 206 202 212 212 211 214 208 210 215 214 212 211
360 319 313 307 294 288 279 272 268 263 262 244 244 267 270 270 278 270 259 259 265 266 262 251 245 254 261 270 274 275 275 270 267 265 263 255 249 248 244 240 240 245 249 247 244 238 230 227 225 222 221 219 215 212 212 210 210 210 212 211 210 211 211 211 212 212 213 212 211 211 211 209 208 208 209 213 215 210 205 205 205 203 200 204 212 207 203 211 213 211 212 210 213 216 215 214 213
1 335 316 295 284 279 267 261 259 252 246 222 222 269 282 279 242 250 260 264 266 265 271 269 252 251 258 267 274 279 275 278 284 281 272 260 256 254 247 242 244 249 255 257 256 250 239 232 228 225 222 220 217 215 214 213 212 213 213 212 211 212 212 211 210 211 212 211 211 211 209 208 208 208 208 212 212 208 205 205 203 201 201 204 209 207 206 212 213 213 213 212 214 214 215 213 213
341 329 302 283 278 272 263 258 251 243 219 149 140 288 285 276 242 251 259 260 273 279 280 278 270 267 269 279 290 296 288 288 297 293 280 277 284 285 276 276 271 265 269 273 264 252 248 243 234 228 224 221 219 217 217 216 215 215 215 215 213 211 211 210 209 209 210 210 211 212 210 208 208 207 207 210 210 208 206 205 203 201 202 204 207 206 208 212 211 211 211 209 209 209 210 208 208
281 263 255 277 289 275 263 255 229 223 172 115 109 281 276 284 285 285 293 317 325 313 298 289 286 285 284 288 289 292 291 284 288 302 324 357 13 17 18 12 5 356 343 330 297 255 247 250 242 232 224 222 222 221 219 219 218 217 219 218 216 213 212 211 210 209 210 210 211 212 212 210 209 207 207 209 210 209 208 206 205 203 203 205 206 207 209 210 208 207 206 204 203 204 207 204 203
258 256 238 258 276 272 270 247 138 131 177 128 122 226 258 285 293 303 334 341 329 312 296 288 287 291 290 288 286 289 292 324 17 27 29 31 29 27 25 21 17 13 9 5 351 307 252 254 249 234 226 224 223 222 220 221 221 219 221 220 219 218 216 215 214 213 213 213 213 213 212 211 210 207 208 210 209 210 209 207 207 205 205 207 208 210 211 209 208 207 206 202 198 200 205 202 201
251 259 257 233 216 268 284 250 146 149 263 163 131 214 250 276 300 308 320 311 298 288 282 284 287 287 291 295 293 296 332 29 38 36 33 32 29 26 26 24 21 17 14 13 10 1 312 271 264 244 232 230 227 225 220 220 223 220 221 220 219 220 219 218 218 216 216 216 216 216 214 213 211 207 209 213 211 211 211 209 209 208 207 208 210 211 212 210 208 208 207 204 200 198 202 201 200
237 229 248 247 234 259 283 321 157 147 116 199 182 218 260 262 289 292 292 281 274 271 273 280 285 283 285 283 282 331 34 42 39 32 28 28 27 26 27 27 24 23 22 21 21 21 17 2 319 261 237 239 236 233 225 221 223 221 219 219 219 220 221 219 218 218 217 218 219 219 218 216 214 210 211 216 214 213 214 212 210 209 209 210 211 212 212 212 210 209 208 207 206 202 202 200 197
255 247 257 274 281 295 302 339 14 138 132 207 214 221 248 245 261 282 291 284 277 278 281 284 290 291 284 283 331 52 57 48 37 29 27 26 26 26 27 28 27 28 29 28 29 29 29 29 22 360 245 261 248 241 234 223 221 222 217 216 219 221 223 220 219 220 220 220 221 222 223 220 217 215 214 217 217 215 215 214 213 212 212 211 212 213 213 211 210 212 209 207 208 207 204 200 196
267 277 285 295 307 319 301 300 309 280 195 233 246 254 268 277 279 284 284 282 283 284 283 286 290 291 299 344 48 62 59 53 42 34 31 28 27 26 26 29 31 31 31 32 33 36 38 38 38 38 17 352 290 244 237 217 215 222 218 215 220 220 221 220 219 222 222 220 221 225 230 227 222 219 218 218 218 216 214 215 216 215 214 213 213 214 212 209 209 211 211 207 206 208 210 204 197
264 270 277 291 294 289 281 279 289 329 291 263 269 278 291 292 285 278 271 274 283 283 280 279 283 301 15 49 62 62 58 54 43 37 36 31 29 29 30 33 35 35 35 35 36 38 39 42 47 46 34 26 31 45 201 199 206 220 223 222 224 222 224 223 219 221 222 223 225 230 236 233 225 221 220 220 219 217 216 217 217 217 217 215 214 214 212 210 210 210 211 209 202 202 208 204 198
271 274 275 279 283 277 271 279 289 76 95 269 282 291 291 289 281 273 271 277 278 273 277 288 350 45 59 64 62 60 60 51 39 39 37 31 30 32 34 36 38 38 37 37 37 37 38 41 44 44 44 46 45 49 62 122 185 222 233 237 238 234 235 231 227 226 226 233 234 232 236 234 227 224 223 222 221 220 219 219 218 218 218 217 218 219 217 216 214 212 211 210 204 197 196 198 198
290 285 284 285 277 272 273 280 288 81 105 279 302 295 289 292 283 274 274 280 270 269 306 29 60 64 59 60 57 55 57 46 38 36 33 31 30 32 36 38 39 39 37 37 38 37 39 42 41 41 47 48 44 45 50 51 53 38 353 249 222 229 229 222 228 230 229 237 240 233 235 236 233 231 227 225 225 224 223 222 221 222 221 219 220 222 221 218 216 214 210 208 206 201 197 196 195
296 291 290 279 263 273 284 276 261 98 115 286 300 292 289 287 280 279 281 272 269 20 62 65 68 67 54 52 49 43 43 41 37 32 30 31 30 32 37 40 40 40 39 39 40 39 39 40 40 43 48 48 45 46 45 41 41 44 41 51 85 120 119 154 184 208 221 232 242 243 240 239 239 238 235 231 229 228 227 226 225 226 225 222 220 219 218 216 215 213 211 210 205 202 201 199 198
261 254 251 261 258 268 273 257 63 34 300 277 286 288 282 275 272 274 273 258 90 71 75 74 70 73 67 59 51 42 39 36 36 33 28 29 30 31 36 40 41 41 40 39 40 41 40 39 41 43 49 49 47 50 49 41 35 33 25 22 33 52 71 150 220 234 236 235 241 248 249 248 250 249 245 240 237 234 231 229 228 228 228 226 224 222 219 216 215 213 212 212 206 199 199 200 203
250 230 225 244 249 252 260 331 5 340 300 278 294 297 261 257 274 288 278 257 92 83 84 79 72 76 75 68 59 47 39 35 37 36 28 29 29 28 33 40 43 43 41 40 39 41 42 42 42 44 49 51 48 53 57 51 42 36 30 24 23 18 7 340 320 309 285 262 252 258 261 258 257 256 253 250 246 242 238 234 231 230 230 229 227 226 224 222 220 216 213 212 208 204 202 200 202
265 238 232 243 248 265 309 353 356 337 303 266 53 314 247 240 280 294 276 249 99 87 87 86 79 72 69 65 58 48 41 35 35 39 35 35 32 27 28 35 42 44 42 41 42 43 45 45 45 45 48 50 50 55 59 58 55 48 40 34 28 21 18 21 28 29 9 341 306 280 273 271 268 261 257 255 253 249 245 240 235 233 233 232 229 229 229 226 223 220 217 213 211 210 207 201 200
258 251 313 322 59 52 355 324 319 243 270 237 182 274 257 248 262 260 257 234 119 92 89 91 85 78 74 70 63 52 48 36 30 38 35 35 36 30 25 28 38 45 45 45 45 44 45 46 46 45 46 48 51 54 59 60 58 54 50 46 40 32 26 26 29 28 18 3 347 318 296 290 286 276 265 259 256 254 251 246 241 238 237 237 234 231 230 229 227 225 222 218 215 213 209 204 202
237 238 357 14 60 54 276 242 224 233 274 265 229 232 263 267 241 244 250 220 120 102 101 98 92 88 86 82 75 62 60 55 41 42 35 31 35 34 27 25 35 45 48 48 47 44 44 45 45 46 46 47 49 52 56 58 56 52 51 52 48 40 31 27 27 26 21 3 341 325 312 303 298 295 284 271 263 259 256 252 247 243 240 241 240 237 234 233 232 229 226 223 219 216 213 210 208
216 189 30 32 76 256 238 215 236 261 299 278 221 190 244 274 248 244 239 186 122 123 130 119 112 105 98 96 91 77 67 66 61 58 48 32 30 33 31 27 34 43 49 50 49 47 46 46 47 46 46 46 47 50 53 54 55 53 51 48 42 35 28 26 28 30 25 12 355 337 323 311 302 299 297 289 276 266 263 259 253 248 244 243 243 242 240 237 235 233 231 227 223 220 218 216 215
188 193 233 236 210 229 226 217 238 282 276 258 219 179 198 279 267 244 216 171 141 144 140 122 115 110 103 98 96 89 72 58 60 60 52 39 31 32 33 33 37 42 48 52 52 49 48 48 49 48 46 45 45 46 49 50 50 50 49 46 41 34 26 22 23 26 22 13 4 352 338 324 310 300 298 299 293 280 272 267 262 256 251 249 246 245 245 242 240 238 237 234 229 225 223 221 220
157 164 305 283 249 219 209 203 178 309 264 257 234 195 185 277 281 235 169 161 154 148 148 134 121 114 107 98 92 87 71 52 54 55 49 41 34 32 34 35 37 40 45 50 51 49 48 48 50 50 48 46 45 45 46 47 46 46 45 43 40 34 28 23 21 21 19 14 8 1 350 338 327 313 300 298 299 295 286 278 272 266 260 255 251 249 248 247 245 242 241 240 235 230 227 226 225
105 107 304 306 286 190 145 99 106 186 253 276 273 195 184 219 277 276 23 127 151 157 158 147 134 123 110 101 94 82 72 64 62 61 52 39 31 29 30 33 35 37 41 45 47 47 47 47 49 50 47 45 46 45 45 45 44 44 43 42 40 35 32 29 23 19 16 13 8 1 356 348 341 334 320 308 302 297 292 288 283 277 271 265 259 256 253 251 250 247 244 243 242 237 232 230 229
117 177 199 280 320 338 191 210 162 217 237 277 344 66 184 223 264 279 315 66 113 132 135 136 131 123 112 103 96 85 81 80 74 70 57 43 34 30 31 33 34 35 38 42 45 46 45 45 47 47 44 42 44 45 45 45 44 43 42 41 40 39 38 34 26 20 16 12 6 360 357 350 343 340 334 328 320 309 296 290 289 286 284 279 272 267 262 257 254 251 248 247 246 244 238 234 233
167 185 169 165 235 273 252 250 238 246 250 282 8 30 327 259 276 278 30 71 62 77 100 111 116 115 111 108 106 103 104 89 75 73 63 51 43 39 40 41 40 41 42 46 48 47 46 45 45 45 42 40 41 42 43 43 42 42 42 42 41 40 40 37 32 28 21 15 9 2 358 351 343 337 332 329 329 324 310 296 290 290 290 288 281 274 270 265 259 255 253 250 249 249 245 241 238
192 199 155 160 189 209 240 258 253 257 278 296 334 39 254 230 228 88 101 96 79 77 89 95 99 106 107 107 110 112 105 80 72 73 67 61 55 50 49 51 52 51 49 50 50 49 48 46 45 44 41 40 40 39 40 40 40 40 42 42 41 40 38 36 35 33 29 24 18 10 3 355 346 338 331 325 321 321 319 307 293 290 293 290 285 279 274 270 265 260 257 254 253 253 251 248 244
216 155 100 165 198 192 241 264 254 268 289 283 243 228 252 243 157 112 101 96 93 94 99 102 104 106 104 100 103 104 86 73 72 73 72 70 67 65 60 54 53 50 48 49 48 48 48 46 45 44 42 42 41 40 40 40 40 41 42 42 41 40 38 35 33 32 30 29 26 21 13 6 356 344 336 330 323 318 316 310 300 295 295 293 289 285 279 274 269 264 261 259 257 255 254 253 250
77 68 153 218 196 153 253 271 266 271 270 257 239 244 271 278 199 118 102 96 101 108 108 111 114 107 100 99 101 94 80 77 78 83 87 79 68 65 61 54 52 51 50 49 49 48 49 47 45 43 41 42 41 40 40 42 44 45 44 43 42 41 40 37 33 31 30 30 29 26 21 17 12 2 352 343 334 325 316 308 302 298 297 295 293 290 285 280 275 269 265 263 261 259 257 256 255
104 170 219 256 14 45 241 256 260 255 253 241 239 255 273 279 258 132 125 122 118 119 114 113 115 109 106 111 106 92 88 91 92 91 86 79 66 55 54 52 49 50 51 52 52 52 52 50 47 44 40 39 37 35 35 36 41 44 44 45 43 42 41 38 35 32 30 29 28 26 22 20 18 13 7 0 350 341 331 319 311 307 304 300 297 295 291 286 280 275 270 267 265 262 260 258 258
118 180 264 56 355 299 242 232 222 238 254 248 235 252 262 252 247 177 168 152 130 128 128 123 121 118 119 118 111 104 105 105 104 108 124 116 84 53 46 44 41 45 47 50 51 50 51 49 47 45 42 39 37 35 31 27 29 32 36 39 40 41 41 38 36 33 31 30 27 24 21 18 17 14 11 9 5 358 349 337 325 317 313 309 304 301 298 293 286 280 275 272 270 266 263 261 260
71 51 339 283 201 211 216 236 239 238 257 262 242 247 252 250 289 18 112 137 139 147 145 132 124 124 129 129 127 128 128 137 156 172 194 175 120 81 57 41 37 40 39 40 40 40 43 41 41 40 37 36 35 33 31 26 21 19 21 26 29 32 34 34 34 32 31 30 27 24 21 18 16 14 10 9 8 5 1 354 345 333 324 317 312 307 303 298 292 285 279 275 274 271 267 265 264
197 115 265 240 216 221 242 261 242 230 252 265 260 254 245 268 348 46 96 125 147 152 140 131 130 130 134 139 145 154 156 169 187 191 192 174 143 129 113 79 60 50 40 38 33 31 35 33 33 34 31 30 29 27 27 24 20 15 13 15 16 19 20 21 23 24 24 24 23 21 19 16 15 13 11 10 8 5 3 360 356 350 341 331 323 316 311 305 298 291 285 280 277 273 269 268 268
153 174 203 213 221 230 259 255 233 217 238 243 253 260 242 229 333 57 97 111 124 127 125 130 144 146 148 160 166 169 177 187 189 185 186 168 142 135 127 108 86 69 56 51 43 36 33 29 27 27 26 25 23 20 19 17 16 13 9 7 6 6 7 7 9 10 11 12 10 10 10 8 7 7 7 7 6 4 2 360 358 355 350 343 335 328 321 313 305 297 291 286 281 276 272 270 269